Zurück zum Katalog

BREEZE-M DEB

TANK

AktivHEO
NORAD 28870·DEBRIS·🇷🇺 Russia

Gestartet Sep 8, 2005 von Baikonur Cosmodrome

Loading…

Nächste Überflüge (nächste 24 Stunden)

TLE

AktuellSource: Space-Track

Epoche: Sep 13, 2026, 15:05 UTC

1 28870U 05036C   26256.62901634  .00001317  00000-0  56514-3 0  9997
2 28870  49.4428  40.5385 5344433 236.9887  60.3457  4.99461477403904

Verfolge BREEZE-M DEB in Echtzeit mit AllMySat

Download on the App Store